Regional Weather Roundup
Issued by NWS

Home | Current Version | Previous Version | Graphics & Text | Print | Product List | Glossary Off
Versions: 1 2 3 4 5 6 7 8 9 10 11 12 13 14 15 16 17 18 19 20 21 22 23 24 25 26 27 28 29 30 31 32 33 34 35 36 37 38 39 40 41 42 43 44 45 46 47 48 49 50

706
ASUS43 KDTX 270310
RWRMI
MICHIGAN HOURLY REGIONAL WEATHER ROUNDUP
NATIONAL WEATHER SERVICE DETROIT/PONTIAC MI
1100 PM EDT TUE JUL 26 2016

NOTE: "FAIR" INDICATES FEW OR NO CLOUDS BELOW 12,000 FEET WITH NO
SIGNIFICANT WEATHER AND/OR OBSTRUCTION TO VISIBILITY.

MIZ047>049-052>055-059>063-066>070-074>076-081>083-270400-
SOUTHEAST LOWER MICHIGAN

CITY           SKY/WX    TMP DP  RH WIND       PRES   REMARKS
ADRIAN         CLEAR     70  63  78 CALM      30.03R
ALMA           CLEAR     74  64  70 W7        30.01S
ANN ARBOR      CLEAR     66  63  90 SW3       30.01R
BAD AXE        CLEAR     69  58  69 CALM      29.98F
CARO           CLEAR     66  63  89 CALM      29.98S
DETROIT CITY   CLEAR     75  62  64 S5        30.01R
DETROIT        PTCLDY    75  62  64 S6        30.01S
FLINT          CLEAR     72  62  71 SW3       30.00S
GROSSE ILE     CLEAR     77  63  60 S7        30.00S
HOWELL         CLEAR     74  61  65 SW3       30.01S

CITY           SKY/WX    TMP DP  RH WIND       PRES   REMARKS
JACKSON        CLEAR     69  66  90 W3        30.02S
LAMBERTVILLE   CLEAR     71  64  79 CALM      30.02S
LANSING        CLEAR     74  64  71 W3        30.01S
LAPEER         MOCLDY    69  65  86 CALM      30.00S
MASON          PTCLDY    74  64  68 W7        30.02S
MONROE         CLEAR     70  66  87 SW7       30.01R
MT. CLEMENS    PTCLDY    73  61  67 SW6       29.97F
PONTIAC        CLEAR     75  63  66 S6        30.00S
PORT HURON     CLEAR     72  63  73 CALM      29.99F
TRI CITIES     CLEAR     72  64  76 SW5       29.98F
MIDLAND        FAIR      68  63  84 CALM      29.98R
TROY           CLEAR     79  59  49 SW6       30.02F
SAGINAW HB     CLEAR     73  61  64 SW6       29.98S
$$
MIZ043>046-050>051-056>058-064>065-071>073-077>080-270400-
SOUTHWEST LOWER MICHIGAN

CITY           SKY/WX    TMP DP  RH WIND       PRES   REMARKS
BATTLE CREEK   CLEAR     71  67  87 CALM      30.03S
BENTON HARBOR  CLEAR     68  65  90 CALM      30.01S
BIG RAPIDS     CLEAR     69  65  85 CALM      30.01S
COLDWATER      CLEAR     68  65  92 CALM      30.03S
FREMONT        FAIR      67  66  97 CALM      30.01R
HOLLAND        CLEAR     66  64  93 CALM      30.02S
GRAND RAPIDS   CLEAR     74  61  63 W3        30.02S
IONIA          FAIR      74  60  63 W5        30.01S
KALAMAZOO      CLEAR     72  63  73 CALM      30.03R
LUDINGTON      CLEAR     72  68  88 SW5       30.00S
MARSHALL       CLEAR     71  66  85 CALM      30.03S
MOUNT PLEASANT CLEAR     74  62  68 W5        30.00R
MUSKEGON       PTCLDY    71  67  87 CALM      30.01R
SOUTH HAVEN    CLEAR     66  65  96 CALM      30.02R
$$
MIZ016>042-270400-
NORTHERN LOWER MICHIGAN

CITY           SKY/WX    TMP DP  RH WIND       PRES   REMARKS
ALPENA         CLEAR     69  64  84 CALM      29.96R
BEAVER ISLAND  PTCLDY    74  64  70 SW13G20   29.93S
BELLAIRE       CLEAR     74  65  73 CALM      29.97R
CADILLAC       CLEAR     68  60  76 SW5       30.02F
CHARLEVOIX     PTCLDY    75  64  67 SW7       29.97S
FRANKFORT      CLEAR     74  63  67 SW6       29.99S
GAYLORD        CLEAR     72  60  66 SW3       30.00R
GRAYLING       CLEAR     73  60  65 W3        30.00F
HARBOR SPRINGS CLEAR     72  65  80 CALM      29.94S
HOUGHTON LAKE  CLEAR     76  62  62 W8        30.01R
MANISTEE       CLEAR     73  62  68 SW6       29.99R
OSCODA         CLEAR     71  63  77 SW6       29.94S
PELLSTON       CLOUDY    72  64  76 CALM      29.94R
ROGERS CITY    CLEAR     71  60  70 SW5       29.96S
TRAVERSE CITY  CLEAR     77  61  57 CALM      29.95S
$$
MIZ007>008-015-270400-
EASTERN UPPER MICHIGAN

CITY           SKY/WX    TMP DP  RH WIND       PRES   REMARKS
KINROSS        TSTM      67  65  93 N8        29.93R FOG
MACKINAC ISLAN LGT RAIN  74  64  73 SW9       29.91F
NEWBERRY       CLOUDY    68  68 100 S3        29.92F
S. S. MARIE    TSTM      68  64  87 SW8G29    29.92S FOG
$$
MIZ004>006-011>014-085-270400-
CENTRAL UPPER MICHIGAN

CITY           SKY/WX    TMP DP  RH WIND       PRES   REMARKS
MANISTIQUE     PTCLDY    68  67  97 NW3       29.92S
ESCANABA       CLOUDY    75  63  64 N6        29.92S
MENOMINEE      PTCLDY   N/A N/A N/A SW6       29.95R
SAWYER-GWINN   CLOUDY    69  66  91 CALM      29.96R
$$
MIZ001>003-009>011-084-270400-
WESTERN UPPER MICHIGAN

CITY           SKY/WX    TMP DP  RH WIND       PRES   REMARKS
IRON MOUNTAIN  CLOUDY    70  64  81 CALM      29.96S
HOUGHTON       CLEAR     68  63  84 NW7       29.94R
IRONWOOD       CLOUDY    68  66  94 CALM      29.96R
$$

ABBREVIATIONS USED IN REMARKS
   TC - TEMPERATURE IN CELSIUS
  WCI - WIND CHILL INDEX
   HX - HEAT INDEX
  VSB - VISIBILITY





USA.gov is the U.S. government's official web portal to all federal, state and local government web resources and services.